Date,TemperatureHighF,TemperatureAvgF,TemperatureLowF,DewpointHighF,DewpointAvgF,DewpointLowF,HumidityHigh,HumidityAvg,HumidityLow,PressureMaxIn,PressureMinIn,WindSpeedMaxMPH,WindSpeedAvgMPH,GustSpeedMaxMPH,PrecipitationSumIn
2013-5-1,60.8,42.4,23.0,24.0,16.4,10.0,67,38,15,30.36,30.15,4,1,0,0.00
2013-5-2,55.4,42.1,30.2,41.8,33.1,22.2,98,72,39,30.36,30.28,5,0,0,0.21
2013-5-3,69.8,48.4,35.6,42.7,37.0,30.9,98,70,30,30.38,30.26,5,1,0,0.14
2013-5-4,73.4,51.8,30.2,43.0,36.1,27.9,98,61,29,30.32,30.09,5,1,0,0.00
2013-5-5,82.4,58.4,35.6,45.9,35.0,20.5,98,53,11,30.09,29.84,5,1,0,0.44
2013-5-6,87.8,62.5,37.4,44.6,35.4,24.7,86,46,11,29.85,29.64,6,1,0,0.00
2013-5-7,80.6,60.3,44.6,33.0,28.9,17.7,59,34,11,29.92,29.77,4,1,0,0.00
2013-5-8,82.4,58.0,33.8,37.2,27.1,12.5,90,44,8,29.98,29.89,4,1,0,0.00
2013-5-9,82.4,60.3,35.6,37.1,25.2,-1.3,84,38,4,30.10,29.96,8,1,0,0.44
2013-5-10,86.0,61.2,35.6,41.0,29.9,12.5,86,41,8,30.13,29.94,5,1,0,0.00
2013-5-11,77.0,60.6,39.2,44.0,37.8,28.2,80,46,18,30.03,29.81,5,2,0,0.00
2013-5-12,75.2,63.4,51.8,51.0,39.7,28.8,71,44,21,29.83,29.70,7,3,0,0.88
2013-5-13,62.6,51.1,41.0,43.1,38.1,32.8,98,64,33,29.78,29.61,7,1,0,0.18
2013-5-14,46.4,42.1,41.0,42.4,40.7,39.1,98,95,79,29.95,29.79,2,0,0,0.24
2013-5-15,50.0,44.2,41.0,42.3,40.9,39.3,98,89,73,29.89,29.84,4,1,0,0.21
2013-5-16,68.0,49.3,35.6,45.9,37.8,28.8,98,71,26,29.90,29.76,6,1,0,0.00
2013-5-17,64.4,49.5,33.8,48.6,39.7,30.9,98,72,45,29.81,29.73,4,1,0,0.18
2013-5-18,64.4,52.8,42.8,44.1,39.2,33.7,98,64,35,30.03,29.77,6,1,0,0.00
2013-5-19,68.0,52.9,42.8,40.9,36.9,31.1,84,58,27,30.22,30.04,7,1,0,0.95
2013-5-20,60.8,49.2,37.4,38.8,35.0,30.0,85,60,39,30.14,29.79,6,1,0,0.00
2013-5-21,51.8,45.5,42.8,49.5,42.2,35.4,98,88,74,29.80,29.53,3,1,0,0.89
2013-5-22,59.0,49.1,41.0,51.3,45.2,40.5,98,87,64,29.79,29.59,6,1,0,0.57
2013-5-23,50.0,45.9,37.4,47.7,40.5,34.7,98,82,59,29.86,29.74,4,1,0,0.00
2013-5-24,59.0,46.2,32.0,42.2,36.9,31.5,98,74,38,29.85,29.75,3,1,0,0.01
2013-5-25,59.0,47.3,42.8,48.8,44.5,42.1,98,90,69,29.82,29.79,5,1,0,0.63
2013-5-26,62.6,49.3,42.8,46.5,43.2,38.3,98,82,44,29.82,29.75,5,1,0,0.13
2013-5-27,62.6,50.4,41.0,46.6,43.1,40.5,98,79,50,29.79,29.59,5,1,0,0.17
2013-5-28,68.0,53.0,44.6,48.8,44.5,39.9,98,76,41,29.63,29.55,5,2,0,0.11
2013-5-29,66.2,53.5,42.8,45.1,41.0,37.7,84,64,42,29.63,29.55,4,1,0,0.00
2013-5-30,59.0,47.6,42.8,47.7,43.6,40.4,98,86,59,30.02,29.64,3,0,0,0.70
2013-5-31,60.8,48.4,41.0,48.9,42.8,39.5,98,83,50,30.17,30.02,4,1,0,0.40